Regional Weather Roundup
Issued by NWS

Home | Current Version | Previous Version | Graphics & Text | Print | Product List | Glossary On
Versions: 1 2 3 4 5 6 7 8 9 10 11 12 13 14 15 16 17 18 19 20 21 22 23 24 25 26 27 28 29 30 31 32 33 34 35 36 37 38 39 40 41 42 43 44 45 46 47 48 49 50
000
ASUS45 KABQ 091501
RWRNM
NEW MEXICO REGIONAL WEATHER ROUNDUP
NATIONAL WEATHER SERVICE ALBUQUERQUE NM
800 AM MST FRI DEC 09 2016

NOTE: "FAIR" MEANS FEW OR NO CLOUDS BELOW 12,000 FEET AGL WITH NO
       SIGNIFICANT WEATHER OR OBSTRUCTIONS TO VISION.

      THIS PRODUCT IS RELEASED AS TWO VERSIONS.  ONE VERSION NEAR
      THE TOP OF THE HOUR CONTAINING PRELIMINARY DATA FROM ALBUQUERQUE
      AND OTHER STATIONS.  A FINAL VERSION WITH ADDITIONAL DATA IS
      ISSUED ABOUT 10 MINUTES AFTER THE HOUR.

NMZ501-503-504-510>518-091600-
NORTHWEST PLATEAU/NORTHCENTRAL MOUNTAINS

CITY           SKY/WX    TMP DP  RH WIND       PRES   REMARKS
FARMINGTON     FAIR      26  19  74 E7        30.33R WCI  18
LOS ALAMOS     FAIR      23  15  72 CALM      30.32S
SANTA FE       FAIR      25  21  85 N3        30.32F
TAOS           FAIR      16   5  62 N8        30.34R WCI   5
ANGEL FIRE     FAIR      28  17  64 S6        30.29R WCI  22

$$
NMZ402-403-502-505>509-091600-
WESTCENTRAL MOUNTAINS/SOUTHWEST MOUNTAINS

CITY           SKY/WX    TMP DP  RH WIND       PRES   REMARKS
GALLUP         FAIR      20  16  84 CALM      30.35R
GRANTS         FAIR      19  16  86 CALM      30.38R
SILVER CITY    FAIR      28  26  91 N3        30.37S

$$
NMZ407-409-411-412-091600-
SOUTHERN DESERTS

CITY           SKY/WX    TMP DP  RH WIND       PRES   REMARKS
DEMING         FAIR      27  24  89 CALM      30.41R
LAS CRUCES     FAIR      28  26  93 CALM      30.41S
HOLLOMAN AFB   CLOUDY    24  21  88 N5        30.48R WCI  18
T OR C         FAIR      27  22  81 CALM      30.39R

$$
NMZ519>523-091600-
CENTRAL VALLEYS/CENTRAL HIGHLANDS

CITY           SKY/WX    TMP DP  RH WIND       PRES   REMARKS
ALBUQUERQUE    FAIR      25  20  81 SE5       30.38S WCI  19
DOUBLE EAGLE   PTCLDY    19  18  93 CALM      30.37S
MORIARTY ARPT  FAIR      14  10  84 CALM      30.35S
CLINES CORNERS FAIR      20  15  81 NW6       30.31S WCI  12
BELEN          FAIR      26  23  89 CALM      30.39S
SOCORRO        FAIR      25  23  92 SW3       30.40R

$$
NMZ524>526-539-540-091600-
SOUTHCENTRAL MOUNTAINS

CITY           SKY/WX    TMP DP  RH WIND       PRES   REMARKS
RUIDOSO        FAIR      28  27  93 NW3       30.34R

$$
NMZ527>531-091600-
NORTHEAST HIGHLANDS/NORTHEAST PLAINS

CITY           SKY/WX    TMP DP  RH WIND       PRES   REMARKS
LAS VEGAS      FAIR      26  22  84 S14       30.20F WCI  14
RATON          HAZE      17  12  80 NE8       30.18F VSB 1/4 WCI   7
CLAYTON        FAIR      27  20  75 SW17      30.15S WCI  14

$$
NMZ532>537-091600-
EASTCENTRAL PLAINS

CITY           SKY/WX    TMP DP  RH WIND       PRES   REMARKS
TUCUMCARI      FAIR      28  24  85 SW15      30.27F WCI  16
CANNON AFB     CLOUDY    24  24 100 SW15      30.34S WCI  12
CLOVIS AIRPORT CLOUDY    25  21  86 SW18      30.34S WCI  11

$$
NMZ028-029-538-091600-
SOUTHEAST PLAINS

CITY           SKY/WX    TMP DP  RH WIND       PRES   REMARKS
ROSWELL        FOG       28  26  92 S8        30.40S VSB 3/4 WCI  20
ARTESIA        CLOUDY    28  28 100 SE9       30.42R FOG     WCI  20
CARLSBAD       NOT AVBL


$$



USA.gov is the U.S. government's official web portal to all federal, state and local government web resources and services.